• In Germany
  • List of Countries
  • For 7 days
  • Water Temperature
  • Satellite Maps
  • Weather Map
  • Weather Widgets
  • user-avatar
    Login

    Hourly Weather Bogota

    Today, 22 July, Sunday

    Time Temperature Precipitation Wind Pressure Humidity
    00:00 +10°C° 0 mm 1 mps 549 mmHg 80%
    01:00 +10°C° 0 mm 1 mps 549 mmHg 80%
    02:00 +10°C° 0 mm 1 mps 549 mmHg 80%
    03:00 +10°C° 0 mm 1 mps 549 mmHg 80%
    04:00 +10°C° 0 mm 1 mps 549 mmHg 81%
    05:00 +10°C° 0 mm 1 mps 549 mmHg 80%
    06:00 +10°C° 0 mm 1 mps 550 mmHg 80%
    07:00 +11°C° 0 mm 1 mps 550 mmHg 79%
    08:00 +12°C° 0 mm 2 mps 551 mmHg 74%
    09:00 +13°C° 0 mm 2 mps 551 mmHg 69%
    10:00 +15°C° 0 mm 2 mps 552 mmHg 64%
    11:00 +16°C° 0 mm 3 mps 552 mmHg 60%
    12:00 +17°C° 0 mm 3 mps 552 mmHg 57%
    13:00 +17°C° 0 mm 3 mps 552 mmHg 54%
    14:00 +17°C° 0.1 mm 3 mps 551 mmHg 56%
    15:00 +17°C° 0.1 mm 2 mps 551 mmHg 58%
    16:00 +16°C° 0.1 mm 2 mps 550 mmHg 60%
    17:00 +15°C° 0.2 mm 2 mps 550 mmHg 68%
    18:00 +13°C° 0.2 mm 1 mps 549 mmHg 75%
    19:00 +11°C° 0.2 mm 1 mps 549 mmHg 82%
    20:00 +11°C° 0.2 mm 1 mps 549 mmHg 84%
    21:00 +10°C° 0.2 mm 1 mps 549 mmHg 85%
    22:00 +10°C° 0.2 mm 1 mps 549 mmHg 86%
    23:00 +10°C° 0 mm 1 mps 549 mmHg 85%

    Tomorrow, 23 July, Monday

    Time Temperature Precipitation Wind Pressure Humidity
    00:00 +9°C° 0 mm 1 mps 549 mmHg 84%
    01:00 +9°C° 0 mm 1 mps 549 mmHg 84%
    02:00 +9°C° 0 mm 1 mps 548 mmHg 83%
    03:00 +9°C° 0 mm 1 mps 548 mmHg 82%
    04:00 +9°C° 0 mm 1 mps 548 mmHg 81%
    05:00 +9°C° 0 mm 1 mps 549 mmHg 80%
    06:00 +10°C° 0 mm 1 mps 549 mmHg 78%
    07:00 +10°C° 0 mm 1 mps 550 mmHg 76%
    08:00 +12°C° 0 mm 1 mps 551 mmHg 71%
    09:00 +13°C° 0 mm 2 mps 552 mmHg 66%
    10:00 +15°C° 0 mm 2 mps 552 mmHg 61%
    11:00 +16°C° 0 mm 2 mps 552 mmHg 58%
    12:00 +17°C° 0 mm 3 mps 552 mmHg 55%
    13:00 +18°C° 0 mm 3 mps 552 mmHg 53%
    14:00 +17°C° 0.1 mm 2 mps 552 mmHg 55%
    15:00 +17°C° 0.1 mm 2 mps 551 mmHg 57%
    16:00 +16°C° 0.1 mm 2 mps 550 mmHg 59%
    17:00 +15°C° 0.1 mm 2 mps 550 mmHg 66%
    18:00 +13°C° 0.1 mm 1 mps 549 mmHg 74%
    19:00 +11°C° 0.1 mm 1 mps 549 mmHg 82%
    20:00 +11°C° 0.1 mm 1 mps 549 mmHg 82%
    21:00 +10°C° 0.1 mm 1 mps 550 mmHg 83%
    22:00 +10°C° 0.1 mm 1 mps 550 mmHg 83%
    23:00 +10°C° 0.2 mm 1 mps 550 mmHg 83%

    Day after tomorrow, 24 July, Tuesday

    Time Temperature Precipitation Wind Pressure Humidity
    00:00 +10°C° 0.2 mm 1 mps 550 mmHg 82%
    01:00 +10°C° 0.2 mm 1 mps 550 mmHg 81%
    02:00 +10°C° 0.6 mm 1 mps 550 mmHg 82%
    03:00 +10°C° 0.6 mm 1 mps 550 mmHg 83%
    04:00 +9°C° 0.6 mm 1 mps 549 mmHg 84%
    05:00 +10°C° 0.3 mm 1 mps 550 mmHg 84%
    06:00 +10°C° 0.3 mm 1 mps 550 mmHg 84%
    07:00 +10°C° 0.3 mm 1 mps 550 mmHg 83%
    08:00 +11°C° 0.1 mm 1 mps 551 mmHg 79%
    09:00 +12°C° 0.1 mm 1 mps 552 mmHg 75%
    10:00 +13°C° 0.1 mm 2 mps 553 mmHg 70%
    11:00 +14°C° 0.1 mm 2 mps 553 mmHg 69%
    12:00 +14°C° 0.1 mm 2 mps 552 mmHg 69%
    13:00 +14°C° 0.1 mm 2 mps 552 mmHg 68%
    14:00 +14°C° 0.3 mm 2 mps 552 mmHg 71%
    15:00 +13°C° 0.3 mm 2 mps 551 mmHg 75%
    16:00 +12°C° 0.3 mm 1 mps 550 mmHg 78%
    17:00 +11°C° 0.2 mm 1 mps 550 mmHg 80%
    18:00 +11°C° 0.2 mm 1 mps 550 mmHg 82%
    19:00 +10°C° 0.2 mm 1 mps 550 mmHg 84%
    20:00 +10°C° 0.1 mm 1 mps 550 mmHg 84%
    21:00 +9°C° 0.1 mm 1 mps 551 mmHg 83%
    22:00 +9°C° 0.1 mm 1 mps 551 mmHg 82%
    23:00 +9°C° 0.1 mm 1 mps 551 mmHg 81%

    25 July, Wednesday

    Time Temperature Precipitation Wind Pressure Humidity
    00:00 +9°C° 0.1 mm 1 mps 550 mmHg 80%
    01:00 +9°C° 0.1 mm 1 mps 550 mmHg 79%
    02:00 +9°C° 0.1 mm 1 mps 550 mmHg 79%
    03:00 +9°C° 0.1 mm 1 mps 550 mmHg 79%
    04:00 +9°C° 0.1 mm 1 mps 550 mmHg 78%
    05:00 +9°C° 0.1 mm 1 mps 550 mmHg 79%
    06:00 +10°C° 0.1 mm 1 mps 550 mmHg 79%
    07:00 +10°C° 0.1 mm 1 mps 551 mmHg 79%
    08:00 +11°C° 0.1 mm 1 mps 551 mmHg 78%
    09:00 +12°C° 0.1 mm 2 mps 552 mmHg 76%
    10:00 +13°C° 0.1 mm 2 mps 552 mmHg 75%
    11:00 +13°C° 0.2 mm 2 mps 552 mmHg 74%
    12:00 +13°C° 0.2 mm 2 mps 552 mmHg 74%
    13:00 +13°C° 0.2 mm 2 mps 551 mmHg 74%
    14:00 +14°C° 0.1 mm 2 mps 551 mmHg 73%
    15:00 +14°C° 0.1 mm 2 mps 551 mmHg 73%
    16:00 +14°C° 0.1 mm 1 mps 550 mmHg 73%
    17:00 +12°C° 0.1 mm 1 mps 550 mmHg 77%
    18:00 +11°C° 0.1 mm 1 mps 550 mmHg 80%
    19:00 +10°C° 0.1 mm 1 mps 550 mmHg 84%
    20:00 +10°C° 0.1 mm 1 mps 550 mmHg 83%
    21:00 +10°C° 0.1 mm 1 mps 550 mmHg 83%
    22:00 +10°C° 0.1 mm 1 mps 551 mmHg 83%
    23:00 +9°C° 0 mm 1 mps 550 mmHg 82%

    26 July, Thursday

    Time Temperature Precipitation Wind Pressure Humidity
    00:00 +9°C° 0 mm 1 mps 550 mmHg 82%
    01:00 +9°C° 0 mm 1 mps 550 mmHg 81%
    02:00 +9°C° 0 mm 1 mps 549 mmHg 81%
    03:00 +9°C° 0 mm 1 mps 549 mmHg 81%
    04:00 +9°C° 0 mm 1 mps 549 mmHg 80%
    05:00 +9°C° 0.1 mm 1 mps 549 mmHg 80%
    06:00 +10°C° 0.1 mm 1 mps 550 mmHg 79%
    07:00 +10°C° 0.1 mm 1 mps 550 mmHg 79%
    08:00 +11°C° 0.1 mm 1 mps 551 mmHg 74%
    09:00 +13°C° 0.1 mm 2 mps 552 mmHg 70%
    10:00 +14°C° 0.1 mm 2 mps 553 mmHg 66%
    11:00 +14°C° 0.1 mm 2 mps 552 mmHg 66%
    12:00 +14°C° 0.1 mm 2 mps 552 mmHg 66%
    13:00 +15°C° 0.1 mm 2 mps 551 mmHg 66%
    14:00 +15°C° 0.1 mm 2 mps 551 mmHg 67%
    15:00 +15°C° 0.1 mm 2 mps 551 mmHg 67%
    16:00 +15°C° 0.1 mm 1 mps 550 mmHg 68%
    17:00 +13°C° 0.1 mm 1 mps 550 mmHg 73%
    18:00 +12°C° 0.1 mm 1 mps 550 mmHg 78%
    19:00 +11°C° 0.1 mm 1 mps 550 mmHg 83%
    20:00 +11°C° 0.1 mm 1 mps 550 mmHg 83%
    21:00 +10°C° 0.1 mm 1 mps 550 mmHg 83%
    22:00 +10°C° 0.1 mm 1 mps 551 mmHg 84%
    23:00 +10°C° 0.1 mm 1 mps 550 mmHg 84%

    27 July, Friday

    Time Temperature Precipitation Wind Pressure Humidity
    00:00 +10°C° 0.1 mm 1 mps 550 mmHg 84%
    01:00 +9°C° 0.1 mm 1 mps 550 mmHg 84%
    02:00 +9°C° 0.1 mm 1 mps 549 mmHg 84%
    03:00 +9°C° 0.1 mm 1 mps 549 mmHg 84%
    04:00 +9°C° 0.1 mm 1 mps 549 mmHg 84%
    05:00 +9°C° 0.3 mm 1 mps 549 mmHg 83%
    06:00 +10°C° 0.3 mm 1 mps 550 mmHg 83%
    07:00 +10°C° 0.3 mm 1 mps 550 mmHg 82%
    08:00 +11°C° 0.2 mm 1 mps 551 mmHg 80%
    09:00 +11°C° 0.2 mm 1 mps 551 mmHg 77%
    10:00 +12°C° 0.2 mm 2 mps 552 mmHg 75%
    11:00 +13°C° 0.1 mm 2 mps 552 mmHg 73%
    12:00 +13°C° 0.1 mm 2 mps 551 mmHg 71%
    13:00 +14°C° 0.1 mm 2 mps 551 mmHg 70%
    14:00 +14°C° 0.1 mm 2 mps 551 mmHg 70%
    15:00 +14°C° 0.1 mm 2 mps 550 mmHg 70%
    16:00 +14°C° 0.1 mm 2 mps 550 mmHg 71%
    17:00 +13°C° 0 mm 1 mps 550 mmHg 74%
    18:00 +11°C° 0 mm 1 mps 550 mmHg 78%
    19:00 +10°C° 0 mm 1 mps 549 mmHg 82%
    20:00 +10°C° 0.1 mm 1 mps 550 mmHg 82%
    21:00 +10°C° 0.1 mm 1 mps 550 mmHg 82%
    22:00 +10°C° 0.1 mm 1 mps 550 mmHg 82%
    23:00 +10°C° 0 mm 1 mps 550 mmHg 81%
    Show more